Location: Unspecified
(0.0000°N, 0.0000°E)
Time: 21:19:48
(UTC+00:00)

Vanguard 1 Rocket - Pass Details

Date: 21 January 2020
Orbit: 650 x 4226 km, 34.3° (Epoch: 23 February)

Event Time Altitude Azimuth Distance (km) Brightness Sun altitude
Rises 04:51:04 0° 203° (SSW) 3,098 10.1 -18.8°
Reaches altitude 10° 04:55:01 10° 169° (SSE) 2,046 9.6 -17.8°
Maximum altitude 04:56:41 12° 146° (SE) 1,928 9.9 -17.4°
Drops below altitude 10° 04:58:24 10° 123° (ESE) 2,091 10.5 -17.0°
Sets 05:02:33 0° 90° (E) 3,263 11.6 -16.1°
